DW9106 Madrid ES current weather conditions

sailwx.info

Wind from 285 at 3 knots gusting 7

Air temperature 22.2° C
Dewpoint 9.0° C

Last reported at 2014-Aug-01 23:38 UTC.
Time now 2014-Aug-02 00:22 UTC

Location: N 40°23' W 003°38'.
View on Google Maps.

See reports from other nearby stations

  
Tides and Currents Weather Stations Pressure Air Temp Water Temp Dewpoint Dewpoint Depression Visibility Wind Speed Wind Dir Waves Ship Positions
date/time (UTC)wind fromknots sea level pressurealtimeterstation pressurevisibilityair tempwater tempwave heightnotes
2014-Aug-01 23:38 285 3 gusting 7 22.2
2014-Aug-01 23:23 257 3 gusting 6 22.2
2014-Aug-01 23:08 261 1 gusting 6 22.2
2014-Aug-01 22:53 242 1 gusting 8 22.8
2014-Aug-01 22:38 230 2 gusting 8 22.8
2014-Aug-01 22:23 186 2 gusting 8 22.8
2014-Aug-01 22:08 238 1 gusting 6 22.8
2014-Aug-01 21:53 275 1 gusting 8 22.8
2014-Aug-01 21:38 244 1 gusting 7 22.8
2014-Aug-01 21:23 286 0 gusting 8 23.3
2014-Aug-01 21:07 240 3 gusting 6 23.3
2014-Aug-01 20:52 292 6 gusting 10 23.3
2014-Aug-01 20:37 173 4 gusting 10 23.3
2014-Aug-01 20:22 224 4 gusting 11 23.3
2014-Aug-01 20:07 267 3 gusting 10 23.3
2014-Aug-01 19:52 113 4 gusting 13 23.9
2014-Aug-01 19:37 292 4 gusting 15 23.9
2014-Aug-01 19:22 229 4 gusting 10 24.4
2014-Aug-01 19:07 261 1 gusting 7 24.4
2014-Aug-01 18:52 263 3 gusting 10 25.0
2014-Aug-01 18:22 232 4 gusting 11 25.0
2014-Aug-01 18:07 285 5 gusting 13 25.0
2014-Aug-01 17:52 284 2 gusting 13 25.6
2014-Aug-01 17:37 283 5 gusting 13 26.1
2014-Aug-01 17:22 235 5 gusting 11 26.1
2014-Aug-01 17:07 266 6 gusting 13 26.1
2014-Aug-01 16:52 261 5 gusting 13 26.1
2014-Aug-01 16:37 209 4 gusting 13 26.1
2014-Aug-01 16:22 250 4 gusting 16 26.1
2014-Aug-01 16:07 267 6 gusting 14 26.7
2014-Aug-01 15:52 284 4 gusting 11 26.7
2014-Aug-01 15:37 249 6 gusting 15 26.7
2014-Aug-01 15:22 263 6 gusting 15 26.7
2014-Aug-01 15:07 302 5 gusting 19 27.2
2014-Aug-01 14:52 161 6 gusting 19 26.7
2014-Aug-01 14:37 259 8 gusting 18 26.7
2014-Aug-01 14:22 240 6 gusting 18 26.7
2014-Aug-01 14:07 198 7 gusting 14 27.2
2014-Aug-01 13:52 257 6 gusting 16 26.7
2014-Aug-01 13:37 288 5 gusting 11 26.7
2014-Aug-01 13:22 234 4 gusting 20 26.7
2014-Aug-01 13:07 121 6 gusting 13 26.7
2014-Aug-01 12:52 265 7 gusting 16 26.1
2014-Aug-01 12:37 154 8 gusting 17 26.1
2014-Aug-01 12:22 128 6 gusting 9 26.7
2014-Aug-01 12:07 257 6 gusting 16 26.1
2014-Aug-01 11:52 192 6 gusting 13 26.1
2014-Aug-01 11:37 207 4 gusting 13 26.1
2014-Aug-01 11:22 211 3 gusting 14 25.6
2014-Aug-01 11:07 134 5 gusting 13 25.6
2014-Aug-01 10:52 262 6 gusting 12 26.1
2014-Aug-01 10:37 173 2 gusting 10 26.1
2014-Aug-01 10:22 210 5 gusting 12 25.6
2014-Aug-01 10:07 268 4 gusting 13 25.6
2014-Aug-01 09:52 222 5 gusting 14 25.0
2014-Aug-01 09:37 078 5 gusting 11 25.0
2014-Aug-01 09:22 296 6 gusting 10 25.0
2014-Aug-01 09:06 271 3 gusting 13 23.9
2014-Aug-01 08:51 200 3 gusting 10 23.9
2014-Aug-01 08:36 185 2 gusting 9 23.9
2014-Aug-01 08:21 256 4 gusting 10 23.9
2014-Aug-01 08:06 306 2 gusting 9 23.3
2014-Aug-01 07:51 235 2 gusting 8 22.8
2014-Aug-01 07:36 246 3 gusting 8 22.8
2014-Aug-01 07:21 221 1 gusting 9 22.2
2014-Aug-01 07:06 251 2 gusting 6 21.7
2014-Aug-01 06:51 213 2 gusting 8 21.7
2014-Aug-01 06:36 267 2 gusting 7 21.1
2014-Aug-01 06:21 234 3 gusting 7 21.1
2014-Aug-01 06:06 257 2 gusting 6 20.6
2014-Aug-01 05:51 259 0 gusting 9 20.6
2014-Aug-01 05:36 206 2 gusting 9 20.6
2014-Aug-01 05:21 277 5 gusting 11 21.1
2014-Aug-01 05:05 260 4 gusting 10 21.1
2014-Aug-01 04:50 225 0 gusting 4 21.1
2014-Aug-01 04:35 246 1 gusting 5 21.1
2014-Aug-01 04:20 265 0 gusting 3 21.7
2014-Aug-01 04:05 258 1 gusting 6 21.7
2014-Aug-01 03:50 311 0 gusting 2 21.7
2014-Aug-01 03:35 243 1 gusting 6 22.2
2014-Aug-01 03:20 260 1 gusting 4 22.2
2014-Aug-01 03:05 299 0 gusting 4 22.8
2014-Aug-01 02:50 257 22.8
2014-Aug-01 02:35 260 23.3
2014-Aug-01 02:20 260 23.3
2014-Aug-01 02:05 260 0 gusting 2 23.9
2014-Aug-01 01:50 260 0 gusting 3 24.4
2014-Aug-01 01:35 200 25.0
2014-Aug-01 01:20 342 3 gusting 7 25.6
2014-Aug-01 01:05 255 3 gusting 9 25.6
2014-Aug-01 00:50 251 2 gusting 7 25.6
2014-Aug-01 00:35 268 0 gusting 6 26.1
2014-Aug-01 00:20 184 3 gusting 7 26.1
2014-Aug-01 00:05 292 1 gusting 6 26.7
2014-Jul-31 23:50 273 1 gusting 7 26.7
2014-Jul-31 23:35 344 1 gusting 6 27.2
2014-Jul-31 23:20 243 4 gusting 9 27.2
2014-Jul-31 23:05 282 4 gusting 8 27.8
2014-Jul-31 22:50 181 2 gusting 8 27.8
2014-Jul-31 22:35 328 1 gusting 7 27.8
2014-Jul-31 22:20 283 3 gusting 10 27.8
2014-Jul-31 22:05 244 3 gusting 8 28.3
2014-Jul-31 21:50 238 3 gusting 7 28.9
2014-Jul-31 21:35 305 2 gusting 8 28.9
2014-Jul-31 21:20 263 2 gusting 6 28.9
2014-Jul-31 21:05 274 0 gusting 4 29.4
2014-Jul-31 20:50 267 1 gusting 9 29.4
2014-Jul-31 20:35 276 2 gusting 7 30.0
2014-Jul-31 20:20 259 4 gusting 8 30.0
2014-Jul-31 20:05 202 1 gusting 9 30.6
2014-Jul-31 19:34 253 3 gusting 10 31.1
2014-Jul-31 19:19 082 4 gusting 9 31.7
2014-Jul-31 19:04 201 3 gusting 11 31.7
2014-Jul-31 18:49 209 3 gusting 13 32.2
2014-Jul-31 18:34 228 3 gusting 7 32.8
2014-Jul-31 18:19 224 4 gusting 10 33.3
2014-Jul-31 18:04 242 2 gusting 9 33.3
2014-Jul-31 17:49 242 2 gusting 10 33.9
2014-Jul-31 17:19 274 5 gusting 12 33.9
2014-Jul-31 17:04 098 3 gusting 8 34.4
2014-Jul-31 16:49 180 2 gusting 9 33.9
2014-Jul-31 16:34 246 4 gusting 11 34.4
2014-Jul-31 16:19 175 3 gusting 11 33.9
2014-Jul-31 16:04 250 3 gusting 8 34.4
2014-Jul-31 15:49 111 0 gusting 8 34.4
2014-Jul-31 15:34 263 1 gusting 8 34.4
2014-Jul-31 15:19 234 2 gusting 8 34.4
2014-Jul-31 15:04 254 5 gusting 13 34.4
2014-Jul-31 14:49 321 3 gusting 7 34.4
2014-Jul-31 14:34 269 3 gusting 9 33.9
2014-Jul-31 14:19 187 3 gusting 8 34.4
2014-Jul-31 14:04 230 5 gusting 9 34.4
2014-Jul-31 13:49 238 4 gusting 11 33.9
2014-Jul-31 13:34 128 2 gusting 11 33.9
2014-Jul-31 13:19 212 3 gusting 16 33.3
2014-Jul-31 13:04 290 0 gusting 13 32.8
2014-Jul-31 12:49 246 3 gusting 9 33.3
2014-Jul-31 12:34 132 0 gusting 11 32.8
2014-Jul-31 12:19 265 2 gusting 5 32.8
2014-Jul-31 12:04 220 1 gusting 7 31.7
2014-Jul-31 11:49 273 2 gusting 8 31.7
2014-Jul-31 11:34 212 0 gusting 10 31.1
2014-Jul-31 11:19 262 1 gusting 6 31.1
2014-Jul-31 11:04 180 0 gusting 5 31.1
2014-Jul-31 10:49 360 0 gusting 4 30.0
2014-Jul-31 10:33 220 0 gusting 4 28.9
2014-Jul-31 10:18 102 0 gusting 4 28.3
2014-Jul-31 10:03 148 0 gusting 4 28.3
2014-Jul-31 09:48 098 1 gusting 4 27.8
2014-Jul-31 09:33 139 26.7
2014-Jul-31 09:18 117 26.1
2014-Jul-31 09:03 060 0 gusting 4 25.6
2014-Jul-31 08:48 074 24.4
2014-Jul-31 08:33 115 0 gusting 2 24.4
2014-Jul-31 08:18 082 0 gusting 3 23.9
2014-Jul-31 08:03 057 2 gusting 6 23.3
2014-Jul-31 07:48 059 1 gusting 3 22.8
2014-Jul-31 07:33 026 1 gusting 4 22.2
2014-Jul-31 07:18 057 2 gusting 6 21.7
2014-Jul-31 07:03 053 1 gusting 4 21.1
2014-Jul-31 06:47 030 2 gusting 6 20.6
2014-Jul-31 06:32 049 3 gusting 6 20.6
2014-Jul-31 06:17 055 1 gusting 6 20.0
2014-Jul-31 05:47 069 0 gusting 4 19.4
2014-Jul-31 04:47 055 0 gusting 4 20.0
2014-Jul-31 04:32 038 20.0
2014-Jul-31 04:17 050 20.6
2014-Jul-31 04:02 039 1 gusting 5 20.6
2014-Jul-31 03:47 044 21.1
2014-Jul-31 03:32 049 1 gusting 5 21.1
2014-Jul-31 03:17 005 0 gusting 6 21.1
2014-Jul-31 03:02 033 1 gusting 4 21.1
2014-Jul-31 02:32 046 1 gusting 6 21.7
2014-Jul-31 02:17 044 3 gusting 8 22.2
2014-Jul-31 02:02 016 4 gusting 7 22.2
2014-Jul-31 01:47 048 2 gusting 5 22.8
2014-Jul-31 01:32 054 3 gusting 7 22.8
2014-Jul-31 01:17 037 1 gusting 6 23.3
2014-Jul-31 01:01 046 2 gusting 6 23.3
2014-Jul-31 00:46 074 3 gusting 10 23.3
2014-Jul-31 00:31 046 4 gusting 8 23.9
2014-Jul-31 00:16 034 4 gusting 9 23.9
2014-Jul-31 00:01 030 5 gusting 10 24.4